FW7817 Weather Reports


Display with metric or nautical units.
time (UTC)temp
F
wind
direction
speed
MPH
gust
MPH
rain 1hr
in
rain 24hr
in
rain mn
in
humidity
%
barometer
mb
20260904223757 97 159 3.0 8.0 0.00 0.00 0.00 45 1013.3
20260904223251 97 148 3.0 8.0 0.00 0.00 0.00 44 1013.4
20260904222239 97 140 3.0 7.0 0.00 0.00 0.00 44 1013.4
20260904221733 97 169 3.0 8.0 0.00 0.00 0.00 45 1013.4
20260904221227 97 130 3.0 8.0 0.00 0.00 0.00 45 1013.4
20260904220721 98 174 2.0 7.0 0.00 0.00 0.00 46 1013.4
20260904220214 97 132 2.0 6.0 0.00 0.00 0.00 46 1013.4
20260904215709 98 126 2.0 10.0 0.00 0.00 0.00 45 1013.4
20260904214657 98 355 2.0 9.0 0.00 0.00 0.00 46 1013.5
20260904214151 97 160 2.0 9.0 0.00 0.00 0.00 45 1013.5
20260904213645 98 133 2.0 7.0 0.00 0.00 0.00 43 1013.5
20260904212632 97 165 3.0 9.0 0.00 0.00 0.00 44 1013.6
20260904212126 97 111 4.0 9.0 0.00 0.00 0.00 45 1013.6
20260904211621 97 163 4.0 9.0 0.00 0.00 0.00 45 1013.6
20260904211115 97 147 4.0 9.0 0.00 0.00 0.00 45 1013.7
20260904210608 98 120 3.0 9.0 0.00 0.00 0.00 46 1013.7
20260904205557 98 140 3.0 10.0 0.00 0.00 0.00 45 1013.8
20260904205051 97 186 4.0 9.0 0.00 0.00 0.00 46 1013.6
20260904204545 98 161 4.0 10.0 0.00 0.00 0.00 46 1013.8
20260904204039 98 113 2.0 10.0 0.00 0.00 0.00 46 1013.7
20260904203533 98 119 1.0 6.0 0.00 0.00 0.00 45 1013.8
20260904203027 98 192 2.0 7.0 0.00 0.00 0.00 47 1013.8
20260904202015 97 97 3.0 11.0 0.00 0.00 0.00 47 1013.9
20260904201003 98 139 2.0 10.0 0.00 0.00 0.00 48 1014.0
20260904200456 98 252 2.0 7.0 0.00 0.00 0.00 48 1014.0
20260904195450 97 153 4.0 9.0 0.00 0.00 0.00 48 1014.1
20260904194939 96 104 3.0 10.0 0.00 0.00 0.00 48 1014.0
20260904194433 97 213 3.0 10.0 0.00 0.00 0.00 48 1014.1
20260904193927 96 192 4.0 10.0 0.00 0.00 0.00 49 1014.1
20260904193421 97 115 2.0 10.0 0.00 0.00 0.00 49 1014.3
20260904192915 97 127 2.0 6.0 0.00 0.00 0.00 51 1014.1
20260904192408 97 161 1.0 6.0 0.00 0.00 0.00 49 1014.2
20260904191902 96 156 1.0 6.0 0.00 0.00 0.00 49 1014.2
20260904191403 96 164 2.0 5.0 0.00 0.00 0.00 51 1014.3
20260904190901 96 223 2.0 8.0 0.00 0.00 0.00 50 1014.3
20260904190401 96 265 2.0 8.0 0.00 0.00 0.00 51 1014.3
20260904185901 96 150 2.0 8.0 0.00 0.00 0.00 50 1014.4
20260904184900 96 146 2.0 8.0 0.00 0.00 0.00 51 1014.5
20260904184400 96 178 2.0 8.0 0.00 0.00 0.00 54 1014.5
20260904183900 95 211 2.0 6.0 0.00 0.00 0.00 51 1014.5
20260904183401 95 111 2.0 8.0 0.00 0.00 0.00 52 1014.6
20260904182901 96 131 2.0 8.0 0.00 0.00 0.00 52 1014.6
20260904182357 96 106 2.0 10.0 0.00 0.00 0.00 53 1014.7
20260904181856 95 115 2.0 10.0 0.00 0.00 0.00 52 1014.7
20260904181356 95 261 3.0 10.0 0.00 0.00 0.00 52 1014.7
20260904180856 95 145 3.0 10.0 0.00 0.00 0.00 53 1014.8
20260904180357 95 136 3.0 10.0 0.00 0.00 0.00 55 1014.8
20260904175857 94 181 4.0 10.0 0.00 0.00 0.00 55 1014.9
20260904174857 94 100 3.0 12.0 0.00 0.00 0.00 53 1015.0
20260904174357 94 165 2.0 8.0 0.00 0.00 0.00 57 1015.0
20260904173851 95 237 2.0 8.0 0.00 0.00 0.00 54 1015.1
20260904173351 95 207 2.0 13.0 0.00 0.00 0.00 54 1015.2
20260904172849 94 207 2.0 13.0 0.00 0.00 0.00 55 1015.2
20260904171348 93 71 3.0 13.0 0.00 0.00 0.00 56 1015.2
20260904170849 94 136 2.0 11.0 0.00 0.00 0.00 55 1015.3
20260904165848 93 135 2.0 8.0 0.00 0.00 0.00 56 1015.4
20260904164846 92 132 2.0 7.0 0.00 0.00 0.00 58 1015.4
20260904164346 92 229 2.0 11.0 0.00 0.00 0.00 57 1015.4
20260904163845 92 153 2.0 11.0 0.00 0.00 0.00 58 1015.3
20260904163344 92 152 2.0 8.0 0.00 0.00 0.00 58 1015.4
20260904162844 92 315 2.0 8.0 0.00 0.00 0.00 58 1015.4
20260904162346 92 130 2.0 8.0 0.00 0.00 0.00 60 1015.3
20260904161334 91 142 1.0 7.0 0.00 0.00 0.00 60 1015.4
20260904160828 91 131 1.0 5.0 0.00 0.00 0.00 61 1015.3
20260904155816 91 161 3.0 8.0 0.00 0.00 0.00 60 1015.3
20260904154808 90 167 2.0 14.0 0.00 0.00 0.00 62 1015.4
20260904154309 90 174 2.0 9.0 0.00 0.00 0.00 60 1015.4
20260904153808 90 121 2.0 8.0 0.00 0.00 0.00 62 1015.3
20260904153308 89 126 3.0 9.0 0.00 0.00 0.00 63 1015.3
20260904152808 88 269 2.0 9.0 0.00 0.00 0.00 63 1015.4
20260904152307 88 175 1.0 8.0 0.00 0.00 0.00 63 1015.4
20260904151806 88 216 1.0 4.0 0.00 0.00 0.00 64 1015.5
20260904151306 88 234 2.0 6.0 0.00 0.00 0.00 65 1015.5
20260904150804 87 138 2.0 6.0 0.00 0.00 0.00 65 1015.5
20260904145807 87 105 2.0 6.0 0.00 0.00 0.00 68 1015.5
20260904145306 86 74 2.0 6.0 0.00 0.00 0.00 68 1015.5
20260904143804 86 168 1.0 9.0 0.00 0.00 0.00 68 1015.5
20260904143304 87 252 1.0 8.0 0.00 0.00 0.00 68 1015.5
20260904142803 86 171 1.0 4.0 0.00 0.00 0.00 68 1015.5
20260904142257 86 151 1.0 4.0 0.00 0.00 0.00 69 1015.5
20260904141245 85 175 1.0 4.0 0.00 0.00 0.00 70 1015.4
20260904135727 83 138 1.0 4.0 0.00 0.00 0.00 73 1015.4
20260904135222 82 163 1.0 6.0 0.00 0.00 0.00 74 1015.4
20260904134715 81 299 1.0 6.0 0.00 0.00 0.00 75 1015.3
20260904134209 81 156 1.0 6.0 0.00 0.00 0.00 75 1015.3
20260904133704 80 124 1.0 5.0 0.00 0.00 0.00 76 1015.3
20260904133158 80 121 1.0 4.0 0.00 0.00 0.00 76 1015.3
20260904132145 79 144 2.0 4.0 0.00 0.00 0.00 77 1015.2
20260904131640 78 140 2.0 6.0 0.00 0.00 0.00 78 1015.2
20260904131134 78 178 2.0 6.0 0.00 0.00 0.00 78 1015.2
20260904130628 78 127 1.0 6.0 0.00 0.00 0.00 79 1015.1
20260904125110 77 138 1.0 3.0 0.00 0.00 0.00 80 1015.1
20260904123552 77 167 1.0 5.0 0.00 0.00 0.00 80 1015.0
20260904123046 76 167 1.0 5.0 0.00 0.00 0.00 80 1014.9
20260904122539 77 190 0.0 2.0 0.00 0.00 0.00 79 1014.9
20260904122033 77 190 0.0 2.0 0.00 0.00 0.00 79 1014.9
20260904121528 77 192 0.0 3.0 0.00 0.00 0.00 79 1014.8
20260904121022 77 192 0.0 3.0 0.00 0.00 0.00 78 1014.8
20260904115504 77 244 0.0 1.0 0.00 0.00 0.00 77 1014.6
20260904114958 77 262 0.0 1.0 0.00 0.00 0.00 77 1014.6
20260904114452 78 262 0.0 3.0 0.00 0.00 0.00 77 1014.5
20260904113945 78 279 0.0 3.0 0.00 0.00 0.00 77 1014.6
20260904113446 78 117 0.0 2.0 0.00 0.00 0.00 77 1014.5
20260904112944 78 117 0.0 3.0 0.00 0.00 0.00 77 1014.5
20260904112444 78 217 0.0 3.0 0.00 0.00 0.00 77 1014.5
20260904111946 78 301 0.0 2.0 0.00 0.00 0.00 76 1014.5
20260904111441 78 301 0.0 3.0 0.00 0.00 0.00 76 1014.4
20260904110438 78 215 0.0 2.0 0.00 0.00 0.00 76 1014.0
20260904105937 78 273 0.0 2.0 0.00 0.00 0.00 76 1013.9
20260904105435 78 127 1.0 2.0 0.00 0.00 0.00 76 1013.9
20260904104936 78 253 1.0 2.0 0.00 0.00 0.00 76 1013.9
20260904104435 78 349 0.0 3.0 0.00 0.00 0.00 76 1013.8
20260904103935 79 245 1.0 3.0 0.00 0.00 0.00 76 1013.8
20260904103436 79 153 1.0 3.0 0.00 0.00 0.00 75 1013.8
20260904102936 79 250 0.0 3.0 0.00 0.00 0.00 75 1013.7
20260904102431 79 259 0.0 3.0 0.00 0.00 0.00 75 1013.6
20260904101931 79 219 0.0 4.0 0.00 0.00 0.00 75 1013.8
20260904101432 79 173 0.0 4.0 0.00 0.00 0.00 75 1013.6
20260904100931 79 176 0.0 2.0 0.00 0.00 0.00 74 1013.6
20260904095931 79 238 0.0 2.0 0.00 0.00 0.00 74 1013.6
20260904095431 79 180 0.0 2.0 0.00 0.00 0.00 74 1013.6
20260904094931 80 227 0.0 7.0 0.00 0.00 0.00 74 1013.5
20260904093932 80 230 0.0 7.0 0.00 0.00 0.00 74 1013.5
20260904093432 80 198 1.0 7.0 0.00 0.00 0.00 74 1013.5
20260904092931 80 159 1.0 3.0 0.00 0.00 0.00 73 1013.4
20260904092431 80 294 0.0 2.0 0.00 0.00 0.00 73 1013.4
20260904091431 80 236 1.0 4.0 0.00 0.00 0.00 73 1013.3
20260904090929 80 198 0.0 4.0 0.00 0.00 0.00 73 1013.3
20260904090430 80 207 1.0 4.0 0.00 0.00 0.00 73 1013.2
20260904085930 80 286 1.0 4.0 0.00 0.00 0.00 73 1013.2
20260904085429 80 241 1.0 3.0 0.00 0.00 0.00 72 1013.3
20260904084930 80 247 0.0 3.0 0.00 0.00 0.00 72 1013.2
20260904084429 80 175 0.0 2.0 0.00 0.00 0.00 72 1013.2
20260904083923 80 175 1.0 7.0 0.00 0.00 0.00 72 1013.0
20260904083417 80 197 1.0 7.0 0.00 0.00 0.00 72 1012.9
20260904082405 80 175 1.0 2.0 0.00 0.00 0.00 72 1012.9
20260904081354 80 86 1.0 6.0 0.00 0.00 0.00 73 1013.0
20260904080847 80 270 1.0 6.0 0.00 0.00 0.00 73 1012.9
20260904075835 80 230 1.0 4.0 0.00 0.00 0.00 73 1012.9
20260904075329 80 132 1.0 3.0 0.00 0.00 0.00 73 1013.0
20260904074823 80 110 1.0 4.0 0.00 0.00 0.00 73 1013.0
20260904074317 80 44 0.0 4.0 0.00 0.00 0.00 73 1012.9
20260904073811 80 196 0.0 2.0 0.00 0.00 0.00 72 1013.0
20260904073305 80 226 0.0 3.0 0.00 0.00 0.00 72 1013.0
20260904072759 80 135 0.0 3.0 0.00 0.00 0.00 72 1013.2
20260904072253 81 113 0.0 3.0 0.00 0.00 0.00 72 1013.2
20260904071748 81 137 0.0 3.0 0.00 0.00 0.00 72 1013.3
20260904071241 81 133 0.0 2.0 0.00 0.00 0.00 72 1013.2
20260904070736 81 138 0.0 3.0 0.00 0.00 0.00 71 1013.3
20260904070230 81 141 0.0 3.0 0.00 0.00 0.00 71 1013.3
20260904065217 81 215 0.0 0.0 0.00 0.00 0.00 70 1013.3
20260904064711 81 215 0.0 0.0 0.00 0.00 0.00 70 1013.3
20260904064205 82 215 0.0 0.0 0.00 0.00 0.00 70 1013.4
20260904063659 82 215 0.0 0.0 0.00 0.00 0.00 69 1013.3
20260904063153 82 215 0.0 0.0 0.00 0.00 0.00 69 1013.3
20260904062647 82 215 0.0 0.0 0.00 0.00 0.00 69 1013.4
20260904062146 82 215 0.0 0.0 0.00 0.00 0.00 69 1013.4
20260904061635 82 215 0.0 2.0 0.00 0.00 0.00 68 1013.4
20260904061130 82 215 0.0 2.0 0.00 0.00 0.00 68 1013.4
20260904060623 82 232 0.0 2.0 0.00 0.00 0.00 68 1013.4
20260904060119 83 232 0.0 2.0 0.00 0.00 0.00 68 1013.4
20260904055105 83 121 0.0 3.0 0.00 0.00 0.00 67 1013.3
20260904054559 83 210 0.0 2.0 0.00 0.00 0.00 67 1013.2
20260904053547 83 288 0.0 3.0 0.00 0.00 0.00 67 1013.3
20260904053041 83 249 0.0 2.0 0.00 0.00 0.00 66 1013.2
20260904052535 83 302 0.0 2.0 0.00 0.00 0.00 66 1013.2
20260904052029 84 203 0.0 3.0 0.00 0.00 0.00 66 1013.0
20260904051523 84 274 0.0 3.0 0.00 0.00 0.00 65 1013.0
20260904051017 84 178 0.0 2.0 0.00 0.00 0.00 65 1013.2
20260904050515 84 177 0.0 2.0 0.00 0.00 0.00 65 1013.0
20260904050012 84 191 0.0 2.0 0.00 0.00 0.00 64 1012.9
20260904045512 85 265 0.0 2.0 0.00 0.00 0.00 64 1013.0
20260904045011 85 204 0.0 2.0 0.00 0.00 0.00 64 1013.0
20260904044512 85 212 0.0 7.0 0.00 0.00 0.00 63 1013.0
20260904044012 85 190 1.0 7.0 0.00 0.00 0.00 63 1013.0
20260904043511 85 118 1.0 4.0 0.00 0.00 0.00 63 1012.9
20260904043011 85 121 1.0 4.0 0.00 0.00 0.00 62 1012.9
20260904042512 85 218 1.0 3.0 0.00 0.00 0.00 62 1012.9
20260904042012 85 141 1.0 3.0 0.00 0.00 0.00 62 1012.9
20260904041512 85 155 1.0 4.0 0.00 0.00 0.00 62 1012.8
20260904041011 85 163 1.0 4.0 0.00 0.00 0.00 61 1012.9
20260904040512 86 217 1.0 6.0 0.00 0.00 0.00 61 1012.8
20260904040011 86 161 1.0 6.0 0.00 0.00 0.00 61 1012.8
20260904035512 86 184 0.0 3.0 0.00 0.00 0.00 60 1012.8
20260904035011 86 178 1.0 3.0 0.00 0.00 0.00 60 1012.8
20260904034512 86 130 1.0 4.0 0.00 0.00 0.00 59 1012.8
20260904034012 86 131 1.0 4.0 0.00 0.00 0.00 59 1012.8
20260904033511 86 157 1.0 6.0 0.00 0.00 0.00 59 1012.8
20260904033011 86 207 2.0 7.0 0.00 0.00 0.00 58 1012.7
20260904032512 86 144 2.0 7.0 0.00 0.00 0.00 58 1012.7
20260904032011 86 111 2.0 7.0 0.00 0.00 0.00 58 1012.7
20260904031511 86 172 2.0 8.0 0.00 0.00 0.00 58 1012.7
20260904031012 86 96 2.0 8.0 0.00 0.00 0.00 58 1012.6
20260904030510 86 164 2.0 8.0 0.00 0.00 0.00 58 1012.6
20260904030009 87 132 2.0 8.0 0.00 0.00 0.00 58 1012.6
20260904025510 87 101 2.0 7.0 0.00 0.00 0.00 58 1012.5
20260904025009 87 132 3.0 8.0 0.00 0.00 0.00 58 1012.4
20260904023512 87 166 3.0 8.0 0.00 0.00 0.00 59 1012.3
20260904023011 87 138 3.0 8.0 0.00 0.00 0.00 59 1012.2
20260904022504 87 123 3.0 9.0 0.00 0.00 0.00 59 1012.3
20260904021957 87 126 3.0 9.0 0.00 0.00 0.00 59 1012.2
20260904021451 88 141 2.0 7.0 0.00 0.00 0.00 59 1012.0
20260904020945 88 130 2.0 5.0 0.00 0.00 0.00 59 1012.0
20260904020440 88 140 2.0 6.0 0.00 0.00 0.00 58 1012.0
20260904015934 88 150 2.0 6.0 0.00 0.00 0.00 58 1012.0
20260904015428 88 169 2.0 6.0 0.00 0.00 0.00 58 1011.9
20260904014922 88 146 2.0 6.0 0.00 0.00 0.00 57 1012.0
20260904014415 89 131 2.0 6.0 0.00 0.00 0.00 57 1011.8
20260904013909 89 150 2.0 5.0 0.00 0.00 0.00 57 1011.7
20260904012857 89 139 2.0 6.0 0.00 0.00 0.00 56 1011.5
20260904012351 89 161 2.0 5.0 0.00 0.00 0.00 56 1011.5
20260904011845 90 118 2.0 5.0 0.00 0.00 0.00 55 1011.4
20260904011339 90 113 2.0 5.0 0.00 0.00 0.00 55 1011.4
20260904010833 90 148 2.0 5.0 0.00 0.00 0.00 55 1011.4
20260904010327 90 127 2.0 5.0 0.00 0.00 0.00 54 1011.3
20260904005821 91 145 2.0 5.0 0.00 0.00 0.00 54 1011.3
20260904005316 91 142 2.0 5.0 0.00 0.00 0.00 53 1011.2
20260904004809 91 155 2.0 5.0 0.00 0.00 0.00 53 1011.2
20260904003757 92 167 1.0 4.0 0.00 0.00 0.00 52 1011.3
20260904003252 92 146 2.0 4.0 0.00 0.00 0.00 52 1011.2
20260904002745 92 121 2.0 4.0 0.00 0.00 0.00 51 1011.3
20260904002239 93 159 2.0 6.0 0.00 0.00 0.00 50 1011.3
20260904001733 93 119 2.0 6.0 0.00 0.00 0.00 50 1011.3
20260904001227 93 150 2.0 6.0 0.00 0.00 0.00 50 1011.3
20260904000721 94 121 2.0 6.0 0.00 0.00 0.00 49 1011.3
20260904000215 94 107 3.0 7.0 0.00 0.00 0.00 49 1011.3
20260903235709 94 145 4.0 9.0 0.00 0.00 0.00 48 1011.2
20260903235203 94 130 4.0 8.0 0.00 0.00 0.00 48 1011.2
20260903234658 95 121 3.0 10.0 0.00 0.00 0.00 48 1011.2
20260903234151 95 130 3.0 10.0 0.00 0.00 0.00 47 1011.2
20260903233645 95 130 3.0 9.0 0.00 0.00 0.00 47 1011.3
20260903233139 95 145 3.0 9.0 0.00 0.00 0.00 46 1011.2
20260903232633 95 123 3.0 10.0 0.00 0.00 0.00 46 1011.2
20260903232127 96 141 4.0 9.0 0.00 0.00 0.00 46 1011.2
20260903231621 96 155 3.0 9.0 0.00 0.00 0.00 47 1011.2
20260903231115 96 131 3.0 8.0 0.00 0.00 0.00 46 1011.1
20260903230610 96 141 3.0 10.0 0.00 0.00 0.00 45 1011.1
20260903225557 96 210 3.0 9.0 0.00 0.00 0.00 46 1011.1
20260903225051 96 112 5.0 12.0 0.00 0.00 0.00 45 1011.2
20260903224545 97 130 4.0 12.0 0.00 0.00 0.00 45 1011.1